Weather History for KVTA - March, 2013

Change the Weather History Date:

Wednesday, March 6, 2013

  Actual Average (KCMH) Record (KCMH)
Temperature  
Mean Temperature 36 °F 38 °F  
Max Temperature 39 °F 47 °F 76 °F (1973)
Min Temperature 33 °F 30 °F 2 °F (1901)
Degree Days  
Heating Degree Days 29 27  
Month to date heating degree days 165  
Since 1 July heating degree days 4160  
Cooling Degree Days 0 0  
Month to date cooling degree days 0  
Year to date cooling degree days 0  
Moisture  
Dew Point 30 °F    
Average Humidity 82    
Maximum Humidity 93    
Minimum Humidity 65    
Precipitation  
Precipitation 0.20 in 0.09 in 2.55 in (1945)
Month to date precipitation 0.50  
Year to date precipitation 5.48  
Snow  
Snow 0.00 in 0.20 in 4.50 in (1967)
Month to date snowfall 1.1  
Since 1 July snowfall 22.5  
Snow Depth -    
Sea Level Pressure  
Sea Level Pressure 29.87 in    
Wind  
Wind Speed 7 mph (North)    
Max Wind Speed 10 mph    
Max Gust Speed 17 mph    
Visibility 7 miles    
Events Snow    
T = Trace of Precipitation, MM = Missing Value Source: NWS Daily Summary

Daily Weather History Graph

Daily Weather History Graph

Search for Another Location

Airport or City:

Trip Planner

Search our weather history database for the weather conditions in past years. The results will help you decide how hot, cold, wet, or windy it might be!

Date:

Astronomy

Mar. 06, 2013 Rise Set
Actual Time 6:55 AM EST 6:27 PM EST
Civil Twilight 6:28 AM EST 6:54 PM EST
Nautical Twilight 5:56 AM EST 7:25 PM EST
Astronomical Twilight 5:25 AM EST 7:57 PM EST
Moon 3:03 AM EST (3/6) 1:08 PM EST (3/6)
Length of Visible Light 12h 26m
Length of Day
11h 32m
Waning Crescent, 30% of the Moon is Illuminated
Mar 6
Waning Crescent
Mar 11
New
Mar 19
First Quarter
Mar 27
Full
Apr 3
Last Quarter

Hourly Weather History & Observations

Time (EST) Temp. Windchill Dew Point Humidity Pressure Visibility Wind Dir Wind Speed Gust Speed Precip Events Conditions
12:48 AM 33.8 °F 27.7 °F 32.0 °F 93% 29.53 in 1.0 mi NE 6.9 mph - 0.10 in Snow Light Snow
12:54 AM 34.0 °F 27.2 °F 32.0 °F 92% 29.54 in 1.0 mi NNE 8.1 mph - 0.10 in Snow Light Snow
1:51 AM 33.8 °F 27.0 °F 32.0 °F 93% 29.54 in 2.5 mi NNE 8.1 mph - 0.05 in Snow Light Snow
1:54 AM 34.0 °F 27.2 °F 32.0 °F 92% 29.56 in 2.5 mi NE 8.1 mph - 0.05 in Snow Light Snow
2:06 AM 33.8 °F 28.6 °F 32.0 °F 93% 29.55 in 3.0 mi NE 5.8 mph - 0.00 in Snow Light Snow
2:47 AM 33.8 °F 26.4 °F 32.0 °F 93% 29.55 in 2.5 mi NNE 9.2 mph - 0.01 in Snow Light Snow
2:54 AM 34.0 °F 28.0 °F 32.0 °F 92% 29.57 in 2.5 mi NE 6.9 mph - 0.01 in Snow Light Snow
3:15 AM 33.8 °F 28.6 °F 32.0 °F 93% 29.55 in 1.8 mi NNE 5.8 mph - 0.01 in Snow Light Snow
3:24 AM 33.8 °F 26.4 °F 32.0 °F 93% 29.56 in 3.0 mi NNE 9.2 mph 17.3 mph 0.01 in Snow Light Snow
3:32 AM 33.8 °F 27.0 °F 32.0 °F 93% 29.56 in 2.0 mi NE 8.1 mph - 0.01 in Snow Light Snow
3:41 AM 33.8 °F 27.0 °F 32.0 °F 93% 29.57 in 1.8 mi NE 8.1 mph - 0.02 in Snow Light Snow
3:54 AM 34.0 °F 26.6 °F 30.9 °F 89% 29.59 in 1.8 mi NE 9.2 mph - 0.02 in Snow Light Snow
4:13 AM 33.8 °F 28.6 °F 32.0 °F 93% 29.59 in 2.0 mi ENE 5.8 mph - 0.01 in Snow Light Snow
4:31 AM 33.8 °F 25.8 °F 30.2 °F 87% 29.60 in 3.0 mi NE 10.4 mph - 0.01 in Snow Light Snow
4:54 AM 34.0 °F 27.2 °F 30.9 °F 89% 29.64 in 3.0 mi NE 8.1 mph - 0.01 in Snow Light Snow
5:23 AM 33.8 °F 27.7 °F 30.2 °F 87% 29.65 in 2.5 mi NE 6.9 mph - 0.01 in Snow Light Snow
5:30 AM 33.8 °F 28.6 °F 30.2 °F 87% 29.65 in 3.0 mi NE 5.8 mph - 0.01 in Snow Light Snow
5:54 AM 34.0 °F 28.0 °F 30.9 °F 89% 29.70 in 7.0 mi Variable 6.9 mph - 0.01 in   Overcast
6:30 AM 33.8 °F 27.7 °F 30.2 °F 87% 29.72 in 10.0 mi NE 6.9 mph - N/A   Overcast
6:54 AM 34.0 °F 29.8 °F 30.9 °F 89% 29.76 in 10.0 mi Variable 4.6 mph - N/A   Overcast
7:10 AM 33.8 °F 26.4 °F 30.2 °F 87% 29.76 in 10.0 mi ENE 9.2 mph - N/A   Overcast
7:32 AM 33.8 °F 29.6 °F 30.2 °F 87% 29.78 in 10.0 mi ENE 4.6 mph - N/A   Overcast
7:54 AM 34.0 °F 28.8 °F 30.0 °F 85% 29.83 in 10.0 mi NE 5.8 mph - N/A   Overcast
8:54 AM 34.0 °F 28.8 °F 30.0 °F 85% 29.89 in 10.0 mi NE 5.8 mph - N/A   Mostly Cloudy
9:01 AM 33.8 °F 27.7 °F 30.2 °F 87% 29.88 in 10.0 mi NE 6.9 mph - N/A   Mostly Cloudy
9:54 AM 37.0 °F 31.0 °F 30.9 °F 79% 29.94 in 10.0 mi North 8.1 mph - N/A   Mostly Cloudy
10:17 AM 37.4 °F 31.4 °F 30.2 °F 75% 29.93 in 10.0 mi North 8.1 mph - N/A   Scattered Clouds
10:43 AM 37.4 °F 33.8 °F 30.2 °F 75% 29.95 in 10.0 mi NNE 4.6 mph - N/A   Mostly Cloudy
10:54 AM 37.9 °F 34.4 °F 30.9 °F 76% 29.97 in 10.0 mi Variable 4.6 mph - N/A   Mostly Cloudy
11:54 AM 37.9 °F 32.1 °F 30.0 °F 73% 30.01 in 10.0 mi North 8.1 mph - N/A   Overcast
12:45 PM 37.4 °F 32.1 °F 28.4 °F 70% 30.01 in 10.0 mi North 6.9 mph - N/A   Overcast
12:54 PM 37.9 °F 32.7 °F 30.0 °F 73% 30.03 in 10.0 mi NNW 6.9 mph - N/A   Overcast
1:51 PM 39.2 °F 35.0 °F 28.4 °F 65% 30.01 in 10.0 mi NNW 5.8 mph - N/A   Overcast
1:54 PM 39.0 °F 34.0 °F 28.9 °F 67% 30.04 in 10.0 mi North 6.9 mph - N/A   Overcast
2:14 PM 39.2 °F 35.0 °F 28.4 °F 65% 30.02 in 10.0 mi NNW 5.8 mph - N/A   Overcast
2:54 PM 39.0 °F 34.0 °F 28.9 °F 67% 30.06 in 10.0 mi NNW 6.9 mph - N/A   Overcast
3:29 PM 39.2 °F 35.0 °F 30.2 °F 70% 30.06 in 10.0 mi NNW 5.8 mph - N/A   Overcast
3:54 PM 37.9 °F 32.1 °F 30.9 °F 76% 30.09 in 10.0 mi WNW 8.1 mph - N/A   Overcast
4:54 PM 37.9 °F 32.1 °F 30.0 °F 73% 30.10 in 10.0 mi WNW 8.1 mph - N/A   Overcast
5:54 PM 37.0 °F 31.6 °F 30.0 °F 76% 30.12 in 10.0 mi WNW 6.9 mph - N/A   Overcast
6:54 PM 36.0 °F 31.1 °F 30.0 °F 79% 30.15 in 10.0 mi WNW 5.8 mph - N/A   Overcast
7:54 PM 36.0 °F 31.1 °F 30.0 °F 79% 30.17 in 10.0 mi WNW 5.8 mph - N/A   Overcast
8:34 PM 35.6 °F 29.9 °F 30.2 °F 81% 30.15 in 10.0 mi WNW 6.9 mph - N/A   Overcast
8:54 PM 35.1 °F 27.9 °F 30.0 °F 82% 30.18 in 10.0 mi WNW 9.2 mph - N/A   Overcast
9:43 PM 35.6 °F 29.2 °F 28.4 °F 75% 30.16 in 9.0 mi WNW 8.1 mph - N/A   Overcast
9:54 PM 35.1 °F 30.1 °F 28.9 °F 78% 30.19 in 9.0 mi WNW 5.8 mph - N/A   Overcast
10:10 PM 35.6 °F 30.7 °F 28.4 °F 75% 30.17 in 9.0 mi WNW 5.8 mph - N/A   Overcast
10:22 PM 33.8 °F 28.6 °F 28.4 °F 81% 30.17 in 8.0 mi WNW 5.8 mph - N/A   Overcast
10:54 PM 34.0 °F 28.0 °F 28.0 °F 79% 30.19 in 7.0 mi WNW 6.9 mph - N/A   Overcast
11:36 PM 33.8 °F 28.6 °F 28.4 °F 81% 30.18 in 7.0 mi NW 5.8 mph - N/A   Overcast
11:54 PM 34.0 °F 28.8 °F 28.0 °F 79% 30.20 in 8.0 mi NNW 5.8 mph - N/A   Overcast